Flag for Germany Weather past 2 weeks in Stassfurt, Saxony-Anhalt, Germany

Now
52 °F

Fog.


Feels Like: 52 °F
Forecast: 49 / 73 °F
Wind: 2 mph from Northeast

Location: Magdeburg


UV Index: 3 (Moderate)

Visibility: 0 mi


Pressure: 30.03 "Hg

Humidity: 100%

Dew point: 52 °F

Location of StassfurtLocation

Historic Weather in Stassfurt

°F

Stassfurt temperature yesterday

Maximum temperature yesterday: 62 °F (at 5:00 PM)
Minimum temperature yesterday: 51 °F (at 2:00 AM)
Average temperature yesterday: 56 °F

Past Weeks' High & Low Weather Summary

 TemperatureHumidityPressure
High70 °F (Apr 23, 6:00 PM)100% (Apr 19, 3:00 AM)30.47 "Hg (Apr 19, 3:00 AM)
Low31 °F (Apr 16, 6:00 AM)25% (Apr 16, 1:00 PM)29.70 "Hg (Apr 21, 3:00 PM)
Average52 °F75%30.03 "Hg
* Reported Apr 10 7:00 AM — Apr 25 7:00 AM, Stassfurt, Weather by CustomWeather, © 2014

Note: Actual official high and low records may vary slightly from our data, if they occured in-between our weather recording intervals... More about our weather records

Advertising

Historic Weather Conditions — Data for Previous 24 hours

 ConditionsComfort  
Time TempWeatherWind HumidityBarometerVisibility
7:00 AM
Apr 25
51 °FFog.2 mph100%30.03 "Hg0 mi
6:00 AM52 °FFog.1 mph100%30.03 "Hg1 mi
4:00 AM47 °FDuststorm.2 mph99%30.03 "Hg1 mi
3:00 AM48 °FFog.1 mph99%30.04 "Hg2 mi
2:00 AM50 °FFog.1 mph98%30.06 "Hg2 mi
1:00 AM51 °FFog.2 mph98%30.08 "Hg2 mi
12:00 AM52 °FFog.1 mph95%30.09 "Hg2 mi
10:00 PM
Apr 24
54 °FFog.1 mph92%30.10 "Hg4 mi
9:00 PM57 °FPassing clouds.2 mph87%30.10 "Hg6 mi
8:00 PM59 °FScattered clouds.3 mph82%30.10 "Hg8 mi
7:00 PM61 °FSunny.3 mph77%30.10 "Hg10 mi
6:00 PM62 °FSunny.3 mph74%30.11 "Hg7 mi
5:00 PM62 °FScattered clouds.2 mph70%30.11 "Hg9 mi
4:00 PM60 °FScattered clouds.2 mph74%30.14 "Hg9 mi
3:00 PM59 °FPartly sunny.2 mph76%30.16 "Hg9 mi
2:00 PM59 °FOvercast.2 mph81%30.16 "Hg7 mi
1:00 PM58 °FLow clouds.2 mph80%30.17 "Hg6 mi
12:00 PM54 °FFog.1 mph91%30.19 "Hg4 mi
10:00 AM51 °FFog.2 mph97%30.19 "Hg1 mi
9:00 AM51 °FFog.1 mph98%30.18 "Hg1 mi
8:00 AM51 °FFog.1 mph99%30.17 "Hg1 mi
Weather by CustomWeather, © 2014

See weather overview